Location: Brown Observing Site
(43.4354°N, 116.3366°W)
Time: 04:32:18
(UTC-06:00)

N. Korean satellite - Visible Passes

Search period start: 23 October 2019 00:00
Search period end: 02 November 2019 00:00
Orbit: 455 x 508 km, 97.2° (Epoch: 22 October)

Date Brightness Start Highest point End Pass type
(mag) Time Alt. Az. Time Alt. Az. Time Alt. Az.
23 Oct 9.4 06:59:05 10° NE 07:02:03 23° E 07:05:02 10° SSE visible
24 Oct 10.4 06:35:09 10° ENE 06:36:34 12° E 06:37:59 10° ESE visible
25 Oct 6.8 07:41:16 10° NNE 07:44:56 81° ESE 07:48:38 10° S visible
25 Oct 10.0 19:52:45 10° SW 19:54:43 14° W 19:56:43 10° WNW visible
26 Oct 8.4 07:16:09 10° NNE 07:19:35 37° E 07:23:03 10° SSE visible
26 Oct 8.9 19:26:12 10° SSW 19:29:14 29° W 19:32:19 10° NW visible
27 Oct 9.7 06:51:28 10° NE 06:54:09 19° E 06:56:51 10° SE visible
29 Oct 7.2 07:33:23 10° NNE 07:37:04 65° E 07:40:44 10° S visible
29 Oct 9.8 19:44:17 10° SW 19:46:44 18° W 19:49:13 10° NW visible
30 Oct 8.8 07:08:22 10° NNE 07:11:40 30° E 07:14:59 10° SSE visible
30 Oct 8.3 19:18:02 10° SSW 19:21:16 37° W 19:24:34 10° NNW visible
31 Oct 10.0 06:43:52 10° NE 06:46:12 16° E 06:48:31 10° SE visible
01 Nov 6.6 07:50:46 10° N 07:54:28 75° WNW 07:58:10 10° SSW visible
01 Nov 10.3 20:03:09 10° WSW 20:04:16 11° W 20:05:24 10° WNW visible
